Aérodrome :
LOGIN :

S'inscrire | Disclaimer

   EN    FR    IT 

 










Légende :    VFR   VFR Marginal   IFR   IFR Intensif   IFR Très Intensif
Visi : 
Plafond : 
>= 8 km
>= 3000ft
5 à 8 km
1000 à 3000 ft
1500m à 5 km
500 à 1000 ft
800 à 1500m
200 à 500 ft
< 800m
< 200 ft
Symboles :   Orages  Brouillard  Fortes neiges  Fortes précipitations  Vent > 20 kt
SIGMETs :   Divers  Orages  Givrage  Turbulence  Onde Orograph.  Cendres Volcan.







- Altitude de l'aérodrome : 184 ft
- Code IATA : BRU


EBBR - Bruxelles

DERNIER METAR :
  • 170720Z 26009KT CAVOK 20/13 Q1015 NOSIG

METARs EXPIRÉS :
  • 170650Z 25008KT 210V280 CAVOK 19/13 Q1015 NOSIG
  • 170620Z 26008KT CAVOK 19/12 Q1015 NOSIG
  • 170550Z 24006KT 210V270 CAVOK 19/12 Q1015 NOSIG
  • 170520Z 22004KT CAVOK 18/12 Q1015 NOSIG
  • 170450Z 24005KT CAVOK 17/11 Q1014 NOSIG

TAF TAF EBBR
Valide du 17 à 06h jusqu'au 18 à 12h UTC


170500Z 1706/1812 26007KT CAVOK
Pas de NOTAMs connus pour ce terrain.



MET'MAP, la Météo Aéronautique d'un coup d'oeil ! - Copyright ORBIFLY Décembre 2007 - Disclaimer

ORBIFLY MET'MAP TEAM :

Programmation & Développement : Alexandra Zaïnal
Conception & Développement : Baudouin d'Aumeries
Co-Programmation & Développement : Marc-Olivier Méhu
Soutien technique & logistique : Manuel Goepfert

Contact : metmap@orbifly.com




SOURCES & CREDITS :

   NOAA